KD0RXN-4 Weather Reports


time (UTC)temp
F
wind
direction
speed
knots
gust
knots
rain 1hr
in
rain 24hr
in
rain mn
in
humidity
%
barometer
mb
20260510192032 74 56 0.0 0.9 0.00 0.00 0.00 34 1018.3
20260510191537 74 36 0.0 0.9 0.00 0.00 0.00 34 1018.3
20260510191017 74 29 0.0 1.7 0.00 0.00 0.00 36 1018.4
20260510190523 74 48 0.0 1.7 0.00 0.00 0.00 33 1018.4
20260510190048 74 26 0.0 0.9 0.00 0.00 0.00 32 1018.5
20260510185532 74 67 0.0 0.9 0.00 0.00 0.00 32 1018.5
20260510185018 74 42 0.0 0.9 0.00 0.00 0.00 33 1018.4
20260510184524 74 331 0.0 0.9 0.00 0.00 0.00 33 1018.3
20260510184029 74 149 0.0 0.0 0.00 0.00 0.00 33 1018.3
20260510183534 74 273 0.0 0.9 0.00 0.00 0.00 33 1018.4
20260510183039 73 28 0.0 0.9 0.00 0.00 0.00 34 1018.3
20260510182543 73 83 0.0 0.9 0.00 0.00 0.00 35 1018.3
20260510182025 73 46 0.0 0.9 0.00 0.00 0.00 35 1018.3
20260510181531 72 28 0.0 1.7 0.00 0.00 0.00 36 1018.4
20260510181016 72 82 0.0 1.7 0.00 0.00 0.00 37 1018.3
20260510180521 72 52 0.0 1.7 0.00 0.00 0.00 36 1018.2
20260510180027 71 71 0.0 0.9 0.00 0.00 0.00 37 1018.2
20260510175552 70 72 0.0 3.5 0.00 0.00 0.00 38 1018.1
20260510175033 70 96 0.9 7.8 0.00 0.00 0.00 37 1018.0
20260510174521 71 75 0.9 7.8 0.00 0.00 0.00 36 1017.9
20260510174027 70 90 0.9 2.6 0.00 0.00 0.00 35 1017.7
20260510173532 70 61 0.0 4.3 0.00 0.00 0.00 36 1017.9
20260510173035 71 60 0.0 4.3 0.00 0.00 0.00 36 1017.9
20260510172520 70 53 0.0 2.6 0.00 0.00 0.00 36 1017.8
20260510172024 70 66 0.0 2.6 0.00 0.00 0.00 37 1017.7
20260510171531 69 56 0.0 2.6 0.00 0.00 0.00 36 1017.7
20260510171037 69 68 0.9 7.0 0.00 0.00 0.00 35 1017.9
20260510170524 70 57 1.7 7.8 0.00 0.00 0.00 35 1017.7
20260510170052 71 73 1.7 7.8 0.00 0.00 0.00 35 1017.7
20260510165518 71 350 0.0 1.7 0.00 0.00 0.00 36 1017.6
20260510165022 70 53 0.0 0.9 0.00 0.00 0.00 40 1017.7
20260510164533 68 74 0.0 5.2 0.00 0.00 0.00 39 1017.7
20260510164019 68 35 0.9 5.2 0.00 0.00 0.00 37 1017.6
20260510163525 68 281 0.9 7.0 0.00 0.00 0.00 38 1017.5
20260510163031 69 59 0.9 9.6 0.00 0.00 0.00 38 1017.5
20260510162517 69 72 1.7 9.6 0.00 0.00 0.00 38 1017.4
20260510162040 68 26 0.0 7.0 0.00 0.00 0.00 41 1017.4
20260510161524 68 63 1.7 7.0 0.00 0.00 0.00 38 1017.4
20260510161031 68 36 0.9 4.3 0.00 0.00 0.00 38 1017.5
20260510160517 68 53 0.0 1.7 0.00 0.00 0.00 39 1017.4
20260510160023 67 42 0.0 1.7 0.00 0.00 0.00 39 1017.4
20260510155529 66 297 0.0 7.0 0.00 0.00 0.00 42 1017.4
20260510155016 66 61 0.9 7.0 0.00 0.00 0.00 41 1017.2
20260510154542 66 28 0.9 3.5 0.00 0.00 0.00 42 1017.2
20260510154027 65 61 0.9 4.3 0.00 0.00 0.00 44 1017.3
20260510153550 65 38 0.9 4.3 0.00 0.00 0.00 44 1017.3
20260510153034 65 62 0.0 5.2 0.00 0.00 0.00 44 1017.3
20260510152540 65 340 0.9 5.2 0.00 0.00 0.00 45 1017.3
20260510152023 65 47 0.0 2.6 0.00 0.00 0.00 45 1017.3
20260510151529 64 24 0.0 5.2 0.00 0.00 0.00 46 1017.3
20260510151035 65 46 0.0 1.7 0.00 0.00 0.00 46 1017.4
20260510150521 64 101 0.0 1.7 0.00 0.00 0.00 47 1017.4
20260510150027 64 55 0.0 1.7 0.00 0.00 0.00 48 1017.5
20260510145533 64 71 0.0 3.5 0.00 0.00 0.00 49 1017.5
20260510145021 64 57 0.0 7.0 0.00 0.00 0.00 49 1017.4
20260510144527 64 46 0.0 7.0 0.00 0.00 0.00 50 1017.4
20260510144049 64 72 0.9 7.0 0.00 0.00 0.00 50 1017.5
20260510143534 64 66 0.9 4.3 0.00 0.00 0.00 50 1017.4
20260510143020 64 53 0.9 3.5 0.00 0.00 0.00 50 1017.5
20260510142526 64 338 0.0 2.6 0.00 0.01 0.00 51 1017.4
20260510142030 64 80 0.0 2.6 0.00 0.01 0.00 51 1017.3
20260510141556 64 62 0.0 1.7 0.00 0.01 0.00 54 1017.3
20260510141041 64 62 0.0 4.3 0.00 0.01 0.00 54 1017.2
20260510140526 64 53 0.9 4.3 0.00 0.01 0.00 54 1017.1
20260510140031 63 20 0.0 1.7 0.00 0.01 0.00 58 1017.0
20260510135517 63 60 0.0 1.7 0.00 0.01 0.00 59 1016.9
20260510135021 63 44 0.0 1.7 0.00 0.01 0.00 60 1016.7
20260510134531 62 55 0.0 1.7 0.00 0.01 0.00 62 1016.6
20260510134053 62 57 0.0 1.7 0.00 0.01 0.00 63 1016.5
20260510133538 61 60 0.0 1.7 0.00 0.01 0.00 63 1016.4
20260510133023 61 65 0.0 1.7 0.00 0.01 0.00 64 1016.3
20260510132549 61 53 0.0 1.7 0.00 0.01 0.00 66 1016.2
20260510132031 61 70 0.0 1.7 0.00 0.01 0.00 65 1016.2
20260510131517 62 64 0.0 1.7 0.00 0.01 0.00 66 1016.1
20260510131043 61 80 0.0 1.7 0.00 0.01 0.00 68 1016.1
20260510130528 61 66 0.0 1.7 0.00 0.01 0.00 68 1016.0
20260510130034 61 40 0.0 0.9 0.00 0.01 0.00 69 1015.9
20260510125520 61 78 0.0 1.7 0.00 0.01 0.00 69 1015.6
20260510125023 61 76 0.0 1.7 0.00 0.01 0.00 70 1015.5
20260510124529 61 71 0.0 0.9 0.00 0.01 0.00 71 1015.4
20260510124019 61 59 0.0 0.9 0.00 0.01 0.00 72 1015.4
20260510123525 60 42 0.0 1.7 0.00 0.01 0.00 73 1015.2
20260510123029 60 54 0.0 1.7 0.00 0.01 0.00 74 1015.0
20260510122534 60 41 0.0 0.9 0.00 0.01 0.00 75 1015.1
20260510122017 60 30 0.0 0.9 0.00 0.01 0.00 76 1015.1
20260510121543 59 54 0.0 0.0 0.00 0.01 0.00 78 1015.1
20260510121025 59 61 0.0 0.0 0.00 0.01 0.00 79 1015.1
20260510120531 59 40 0.0 0.0 0.00 0.01 0.00 79 1015.0
20260510120057 59 80 0.0 0.0 0.00 0.01 0.00 79 1014.9
20260510115542 58 73 0.0 0.0 0.00 0.01 0.00 80 1014.7
20260510115024 58 91 0.0 0.0 0.00 0.01 0.00 81 1014.7
20260510114530 58 47 0.0 0.0 0.00 0.01 0.00 81 1014.6
20260510114036 58 5 0.0 0.0 0.00 0.01 0.00 82 1014.5
20260510113527 58 67 0.0 0.0 0.00 0.01 0.00 82 1014.3
20260510113052 59 67 0.0 0.0 0.00 0.01 0.00 82 1014.2
20260510112517 59 96 0.0 0.0 0.00 0.01 0.00 82 1014.1
20260510112021 59 65 0.0 0.0 0.00 0.01 0.00 81 1014.0
20260510111547 59 65 0.0 0.0 0.00 0.01 0.00 81 1014.0
20260510111032 59 45 0.0 0.0 0.00 0.01 0.00 81 1014.0
20260510110518 59 45 0.0 0.0 0.00 0.01 0.00 81 1014.0
20260510110024 59 59 0.0 0.0 0.00 0.01 0.00 81 1014.0
20260510105530 59 60 0.0 0.9 0.00 0.01 0.00 81 1014.1
20260510105056 59 41 0.0 0.9 0.00 0.01 0.00 81 1014.1
20260510104521 60 41 0.0 0.0 0.00 0.01 0.00 80 1014.1
20260510104027 60 41 0.0 0.0 0.00 0.01 0.00 80 1014.0
20260510103517 60 46 0.0 0.0 0.00 0.01 0.00 80 1013.9
20260510103023 60 44 0.0 0.0 0.00 0.01 0.00 80 1013.8
20260510102529 60 15 0.0 0.0 0.00 0.01 0.00 80 1013.8
20260510102032 60 98 0.0 0.0 0.00 0.01 0.00 79 1013.7
20260510101518 60 28 0.0 0.0 0.00 0.01 0.00 79 1013.4
20260510101022 60 54 0.0 0.0 0.00 0.01 0.00 79 1013.2
20260510100526 60 76 0.0 0.0 0.00 0.01 0.00 79 1013.1
20260510100031 60 67 0.0 0.0 0.00 0.01 0.00 79 1013.1
20260510095517 61 46 0.0 0.0 0.00 0.01 0.00 79 1013.1
20260510095020 61 42 0.0 0.0 0.00 0.01 0.00 78 1013.1
20260510094547 61 336 0.0 0.0 0.00 0.01 0.00 78 1013.1
20260510094031 61 27 0.0 0.0 0.00 0.01 0.00 78 1013.0
20260510093521 61 40 0.0 0.0 0.00 0.01 0.00 77 1012.9
20260510093025 61 46 0.0 0.0 0.00 0.01 0.00 77 1012.8
20260510092551 62 16 0.0 0.0 0.00 0.01 0.00 76 1012.7
20260510092032 62 53 0.0 0.0 0.00 0.01 0.00 75 1012.7
20260510091539 62 46 0.0 0.0 0.00 0.01 0.00 75 1012.5
20260510091044 62 76 0.0 0.0 0.00 0.01 0.00 74 1012.4
20260510090529 63 77 0.0 0.0 0.00 0.01 0.00 73 1012.2
20260510090034 63 76 0.0 0.0 0.00 0.01 0.00 73 1012.3
20260510085521 63 82 0.0 0.0 0.00 0.01 0.00 73 1012.3
20260510085025 63 82 0.0 0.0 0.00 0.01 0.00 72 1012.2
20260510084531 63 78 0.0 0.0 0.00 0.01 0.00 72 1012.2
20260510084016 63 77 0.0 0.0 0.00 0.01 0.00 72 1012.2
20260510083527 63 48 0.0 0.0 0.00 0.01 0.00 72 1012.2
20260510083033 63 49 0.0 0.0 0.00 0.01 0.00 72 1012.1
20260510082520 63 42 0.0 0.0 0.00 0.01 0.00 71 1012.0
20260510082023 63 57 0.0 0.0 0.00 0.01 0.00 71 1012.0
20260510081529 64 57 0.0 0.0 0.00 0.01 0.00 70 1012.0
20260510081035 64 57 0.0 0.0 0.00 0.01 0.00 70 1011.9
20260510080542 64 57 0.0 0.0 0.00 0.01 0.00 70 1012.0
20260510080026 64 57 0.0 0.0 0.00 0.01 0.00 69 1012.0
20260510075532 64 57 0.0 0.0 0.00 0.01 0.00 69 1011.9
20260510075034 64 57 0.0 0.0 0.00 0.01 0.00 69 1011.9
20260510074520 64 57 0.0 0.0 0.00 0.01 0.00 70 1011.8
20260510074030 64 57 0.0 0.0 0.00 0.01 0.00 70 1011.8
20260510073536 63 57 0.0 0.0 0.00 0.01 0.00 71 1011.7
20260510073021 63 57 0.0 0.0 0.00 0.01 0.00 72 1011.6
20260510072527 63 57 0.0 0.0 0.00 0.01 0.00 72 1011.7
20260510072030 63 57 0.0 0.0 0.00 0.01 0.00 72 1011.7
20260510071536 63 57 0.0 0.0 0.00 0.01 0.00 72 1011.8
20260510071022 63 57 0.0 0.0 0.00 0.01 0.00 73 1011.8
20260510070547 63 57 0.0 0.0 0.00 0.01 0.00 73 1011.7
20260510070032 63 57 0.0 0.0 0.00 0.01 0.00 73 1011.8
20260510065519 63 57 0.0 0.0 0.00 0.01 0.00 73 1011.8
20260510065023 63 57 0.0 0.0 0.00 0.01 0.00 72 1011.7
20260510064534 63 57 0.0 0.0 0.00 0.01 0.00 72 1011.6
20260510064035 63 57 0.0 0.0 0.00 0.01 0.00 72 1011.6
20260510063521 63 57 0.0 0.0 0.00 0.01 0.00 72 1011.4
20260510063027 63 57 0.0 0.0 0.00 0.01 0.00 72 1011.4
20260510062534 63 57 0.0 0.0 0.00 0.01 0.00 71 1011.4
20260510062017 64 57 0.0 0.0 0.00 0.01 0.00 71 1011.4
20260510061524 64 57 0.0 0.0 0.00 0.01 0.00 71 1011.4
20260510061026 64 57 0.0 0.0 0.00 0.01 0.00 70 1011.3
20260510060532 64 57 0.0 0.0 0.00 0.01 0.00 69 1011.4
20260510060018 64 57 0.0 0.0 0.00 0.01 0.00 68 1011.4
20260510055529 65 57 0.0 0.0 0.00 0.01 0.00 67 1011.4
20260510055033 65 57 0.0 0.0 0.00 0.01 0.00 66 1011.4
20260510054518 65 57 0.0 0.0 0.00 0.01 0.00 65 1011.4
20260510054024 66 57 0.0 0.0 0.00 0.01 0.00 65 1011.3
20260510053529 66 57 0.0 0.0 0.00 0.01 0.00 64 1011.3
20260510053035 66 57 0.0 0.0 0.00 0.01 0.00 63 1011.3
20260510052521 66 57 0.0 0.0 0.00 0.02 0.00 64 1011.2
20260510052025 67 57 0.0 0.0 0.00 0.02 0.00 63 1011.3
20260510051531 67 57 0.0 0.0 0.00 0.02 0.00 64 1011.3
20260510051057 67 57 0.0 0.0 0.00 0.02 0.00 63 1011.4
20260510050540 67 57 0.0 0.0 0.00 0.02 0.00 64 1011.4
20260510050030 67 57 0.0 0.0 0.00 0.02 0.00 64 1011.4
20260510045535 67 57 0.0 0.0 0.00 0.02 0.00 63 1011.4
20260510045038 67 57 0.0 0.0 0.00 0.02 0.00 62 1011.3
20260510044523 67 57 0.0 0.0 0.00 0.02 0.00 63 1011.2
20260510044029 67 57 0.0 0.0 0.00 0.02 0.00 62 1011.1
20260510043534 67 25 0.0 0.0 0.00 0.02 0.00 62 1011.1
20260510043038 67 25 0.0 0.0 0.00 0.02 0.00 61 1011.1
20260510042544 67 19 0.0 0.0 0.00 0.02 0.00 61 1011.1
20260510042025 67 28 0.0 0.0 0.00 0.02 0.00 61 1011.0
20260510041532 67 28 0.0 0.0 0.00 0.02 0.00 61 1011.0
20260510041056 67 23 0.0 0.0 0.00 0.02 0.00 61 1011.0
20260510040540 68 71 0.0 0.0 0.00 0.02 0.00 60 1011.0
20260510040028 68 57 0.0 0.0 0.00 0.02 0.00 58 1010.7
20260510035553 68 213 0.0 0.0 0.00 0.02 0.00 57 1010.2
20260510035035 68 194 0.0 0.0 0.00 0.02 0.00 58 1010.0
20260510034541 68 194 0.0 0.0 0.00 0.02 0.00 59 1010.0
20260510034026 68 194 0.0 0.0 0.00 0.02 0.00 60 1009.9
20260510033532 68 194 0.0 0.0 0.00 0.02 0.00 61 1009.8
20260510033037 68 194 0.0 0.0 0.00 0.02 0.00 61 1009.8
20260510032544 68 194 0.0 0.0 0.00 0.07 0.00 62 1009.9
20260510032025 68 194 0.0 0.0 0.00 0.07 0.00 63 1009.8
20260510031531 68 194 0.0 0.0 0.00 0.07 0.00 62 1009.8
20260510031036 68 194 0.0 0.0 0.00 0.07 0.00 63 1009.8
20260510030542 68 194 0.0 0.0 0.00 0.07 0.00 62 1009.8
20260510030030 68 194 0.0 0.0 0.00 0.07 0.00 60 1009.8
20260510025536 68 194 0.0 0.0 0.00 0.07 0.00 60 1009.7
20260510025038 69 194 0.0 0.0 0.00 0.07 0.00 59 1009.6
20260510024524 69 194 0.0 0.0 0.00 0.07 0.00 59 1009.5
20260510024027 70 194 0.0 0.0 0.00 0.07 0.00 59 1009.4
20260510023528 70 194 0.0 0.0 0.00 0.07 0.00 59 1009.4
20260510023033 70 194 0.0 0.0 0.00 0.07 0.00 58 1009.3
20260510022558 71 194 0.0 0.0 0.00 0.35 0.00 57 1009.1
20260510022040 71 194 0.0 0.0 0.00 0.35 0.00 55 1009.0
20260510021526 72 194 0.0 0.0 0.00 0.35 0.00 53 1008.9
20260510021047 72 194 0.0 0.0 0.00 0.35 0.00 52 1008.7
20260510020548 72 194 0.0 0.0 0.00 0.35 0.00 52 1008.7
20260510020032 73 194 0.0 0.0 0.00 0.35 0.00 50 1008.5
20260510015559 73 194 0.0 0.0 0.00 0.35 0.00 50 1008.3
20260510015023 74 194 0.0 0.0 0.00 0.35 0.00 51 1008.1
20260510014529 74 194 0.0 0.0 0.00 0.35 0.00 49 1008.1
20260510014034 74 194 0.0 0.0 0.00 0.35 0.00 48 1008.1
20260510013539 75 194 0.0 0.0 0.00 0.35 0.00 47 1008.0
20260510013024 75 194 0.0 0.0 0.00 0.35 0.00 47 1008.0
20260510012529 76 194 0.0 0.0 0.00 0.35 0.00 46 1007.9
20260510012032 76 194 0.0 0.0 0.00 0.35 0.00 45 1007.9
20260510011558 77 194 0.0 0.0 0.00 0.35 0.00 45 1007.8
20260510011041 77 194 0.0 0.0 0.00 0.35 0.00 43 1007.8
20260510010527 77 194 0.0 0.0 0.00 0.35 0.00 42 1007.7
20260510010032 78 194 0.0 0.0 0.00 0.35 0.00 41 1007.6
20260510005537 78 194 0.0 0.0 0.00 0.35 0.00 40 1007.6
20260510005025 78 194 0.0 0.0 0.00 0.35 0.00 39 1007.5
20260510004530 79 194 0.0 0.0 0.00 0.35 0.00 38 1007.4
20260510004035 79 194 0.0 0.0 0.00 0.35 0.00 37 1007.4
20260510003541 79 194 0.0 0.0 0.00 0.35 0.00 36 1007.4
20260510003026 80 194 0.0 0.0 0.00 0.35 0.00 36 1007.4
20260510002532 80 194 0.0 0.0 0.00 0.35 0.00 36 1007.4
20260510002035 80 174 0.0 0.0 0.00 0.35 0.00 35 1007.4
20260510001540 80 174 0.0 0.0 0.00 0.35 0.00 35 1007.4
20260510001026 80 200 0.0 0.0 0.00 0.35 0.00 33 1007.4
20260510000531 80 187 0.0 0.0 0.00 0.35 0.00 33 1007.5
20260510000056 81 194 0.0 0.0 0.00 0.35 0.00 33 1007.5
20260509235544 81 210 0.0 0.0 0.00 0.35 0.00 32 1007.4
20260509235026 81 203 0.0 0.0 0.00 0.35 0.00 34 1007.4
20260509234531 81 250 0.0 0.0 0.00 0.35 0.00 33 1007.4
20260509234036 82 199 0.0 0.0 0.00 0.35 0.00 31 1007.4
20260509233523 82 245 0.0 0.0 0.00 0.35 0.00 31 1007.4
20260509233030 82 234 0.0 0.0 0.00 0.35 0.00 32 1007.4
20260509232534 82 244 0.0 0.0 0.00 0.35 0.00 32 1007.3
20260509232040 82 254 0.0 0.0 0.00 0.35 0.00 32 1007.3
20260509231526 81 262 0.0 0.0 0.00 0.35 0.00 33 1007.4
20260509231034 81 201 0.0 0.0 0.00 0.35 0.00 33 1007.4
20260509230525 81 230 0.0 0.0 0.00 0.35 0.00 34 1007.5
20260509230051 82 185 0.0 0.0 0.00 0.35 0.00 33 1007.5
20260509225536 82 225 0.0 0.9 0.00 0.35 0.00 34 1007.4
20260509225040 82 196 0.0 0.9 0.00 0.35 0.00 32 1007.4
20260509224526 81 212 0.0 0.9 0.00 0.35 0.00 32 1007.4
20260509224032 82 231 0.0 0.9 0.00 0.35 0.00 31 1007.4
20260509223538 82 215 0.0 1.7 0.00 0.35 0.00 31 1007.4
20260509223044 83 241 0.0 1.7 0.00 0.35 0.00 32 1007.4
20260509222529 83 245 0.0 0.9 0.00 0.35 0.00 31 1007.5
20260509222035 84 190 0.0 0.9 0.00 0.35 0.00 28 1007.4
20260509221539 84 215 0.0 0.0 0.00 0.35 0.00 29 1007.4
20260509221023 84 227 0.0 0.0 0.00 0.35 0.00 30 1007.4
20260509220533 83 250 0.0 1.7 0.00 0.35 0.00 30 1007.4
20260509220101 84 240 0.0 1.7 0.00 0.35 0.00 29 1007.5
20260509215523 84 271 0.0 0.0 0.00 0.35 0.00 29 1007.4
20260509215029 84 197 0.0 0.9 0.00 0.35 0.00 28 1007.4
20260509214536 85 241 0.0 0.9 0.00 0.35 0.00 28 1007.4
20260509214101 85 283 0.0 0.9 0.00 0.35 0.00 29 1007.4
20260509213526 84 67 0.0 0.9 0.00 0.35 0.00 31 1007.4
20260509213033 84 203 0.0 0.9 0.00 0.35 0.00 29 1007.5
20260509212539 84 245 0.0 1.7 0.00 0.35 0.00 31 1007.5
20260509212025 84 236 0.0 1.7 0.00 0.35 0.00 30 1007.5
20260509211531 83 238 0.0 0.9 0.00 0.35 0.00 32 1007.5
20260509211037 82 259 0.0 0.9 0.00 0.35 0.00 31 1007.6
20260509210527 83 227 0.0 1.7 0.00 0.35 0.00 31 1007.7
20260509210053 84 221 0.0 1.7 0.00 0.35 0.00 31 1007.7
20260509205538 83 284 0.0 3.5 0.00 0.35 0.00 31 1007.7
20260509205022 83 213 0.0 3.5 0.00 0.35 0.00 33 1007.8
20260509204549 84 247 0.0 0.9 0.00 0.35 0.00 33 1007.8
20260509204034 83 244 0.0 0.9 0.00 0.35 0.00 32 1007.8
20260509203540 83 259 0.0 0.9 0.00 0.35 0.00 34 1007.8
20260509203026 83 230 0.0 0.9 0.00 0.35 0.00 33 1008.0
20260509202531 82 283 0.0 1.7 0.00 0.35 0.00 32 1007.9
20260509202036 83 194 0.0 0.9 0.00 0.35 0.00 31 1008.0
20260509201544 83 218 0.0 0.9 0.00 0.35 0.00 32 1008.1
20260509201029 83 286 0.0 1.7 0.00 0.35 0.00 31 1008.2
20260509200555 82 271 0.0 2.6 0.00 0.35 0.00 32 1008.2
20260509200023 82 189 0.9 2.6 0.00 0.35 0.00 32 1008.2
20260509195530 82 244 0.0 3.5 0.00 0.35 0.00 32 1008.4
20260509195035 83 202 0.9 3.5 0.00 0.35 0.00 31 1008.3
20260509194521 83 183 0.0 1.7 0.00 0.35 0.00 32 1008.4
20260509194048 83 288 0.0 1.7 0.00 0.35 0.00 32 1008.3
20260509193533 84 284 0.0 1.7 0.00 0.35 0.00 32 1008.3
20260509193038 84 232 0.0 1.7 0.00 0.35 0.00 32 1008.4
20260509192525 83 235 0.0 1.7 0.00 0.35 0.00 32 1008.4